EW1645 Weather Reports


time (UTC)temp
C
wind
direction
speed
KPH
gust
KPH
rain 1hr
cm
rain 24hr
cm
rain mn
cm
humidity
%
barometer
mb
20260507225521 17 249 1.6 4.8 0.00 0.15 0.05 53 1011.4
20260507225021 17 340 3.2 4.8 0.00 0.15 0.05 55 1011.3
20260507224520 16 235 0.0 0.0 0.00 0.15 0.05 57 1011.2
20260507224021 16 359 0.0 9.7 0.00 0.15 0.05 55 1011.2
20260507223521 17 269 3.2 11.3 0.00 0.15 0.05 55 1011.2
20260507223020 17 252 3.2 12.9 0.00 0.15 0.05 55 1011.0
20260507222020 17 283 3.2 8.0 0.00 0.15 0.05 52 1010.9
20260507221022 17 351 3.2 14.5 0.00 0.15 0.05 60 1010.8
20260507220520 16 287 0.0 4.8 0.00 0.15 0.05 63 1010.7
20260507220020 16 275 1.6 4.8 0.00 0.15 0.05 66 1010.7
20260507215521 16 225 0.0 3.2 0.00 0.15 0.05 66 1010.6
20260507215021 16 206 1.6 4.8 0.00 0.15 0.05 66 1010.6
20260507214520 16 234 1.6 4.8 0.00 0.15 0.05 68 1010.6
20260507214021 16 260 0.0 4.8 0.00 0.15 0.05 69 1010.6
20260507213521 16 231 1.6 11.3 0.00 0.15 0.05 67 1010.6
20260507213022 16 265 1.6 4.8 0.00 0.15 0.05 67 1010.7
20260507212521 16 243 1.6 4.8 0.00 0.15 0.05 67 1010.7
20260507212020 16 266 1.6 3.2 0.00 0.15 0.05 67 1010.7
20260507211021 16 245 1.6 4.8 0.00 0.15 0.05 68 1010.8
20260507210520 16 262 1.6 3.2 0.00 0.15 0.05 69 1010.7
20260507210020 16 271 1.6 8.0 0.00 0.15 0.05 69 1010.5
20260507205520 16 263 1.6 3.2 0.00 0.15 0.05 66 1010.6
20260507204520 17 221 3.2 11.3 0.00 0.15 0.05 64 1010.5
20260507204020 17 235 4.8 9.7 0.00 0.15 0.05 63 1010.4
20260507203521 17 234 4.8 14.5 0.00 0.15 0.05 65 1010.4
20260507202520 17 127 3.2 9.7 0.00 0.15 0.05 65 1010.4
20260507202021 17 257 3.2 4.8 0.00 0.15 0.05 67 1010.4
20260507201520 16 229 1.6 4.8 0.00 0.15 0.05 69 1010.4
20260507200520 15 233 1.6 8.0 0.00 0.15 0.05 71 1010.7
20260507200021 15 245 3.2 4.8 0.00 0.15 0.05 70 1010.9
20260507195521 15 158 0.0 4.8 0.00 0.15 0.05 76 1011.0
20260507195020 14 245 3.2 4.8 0.00 0.15 0.05 72 1011.1
20260507194520 14 133 0.0 1.6 0.00 0.15 0.05 76 1011.3
20260507194020 14 244 0.0 1.6 0.00 0.15 0.05 75 1011.4
20260507193521 14 245 0.0 1.6 0.00 0.15 0.05 77 1011.5
20260507193020 14 152 1.6 1.6 0.00 0.15 0.05 78 1011.7
20260507192520 13 214 0.0 0.0 0.00 0.15 0.05 82 1011.7
20260507192020 13 214 0.0 1.6 0.00 0.15 0.05 81 1011.6
20260507191521 14 214 0.0 1.6 0.00 0.15 0.05 81 1011.8
20260507190521 13 243 0.0 1.6 0.00 0.15 0.05 84 1011.7
20260507190020 13 247 0.0 0.0 0.00 0.15 0.05 82 1011.7
20260507185520 13 247 0.0 1.6 0.00 0.15 0.05 82 1011.9
20260507185020 13 257 1.6 3.2 0.00 0.15 0.05 82 1012.0
20260507184522 13 262 0.0 1.6 0.00 0.15 0.05 81 1011.9
20260507184020 13 259 0.0 3.2 0.00 0.15 0.05 82 1012.0
20260507183521 13 224 0.0 3.2 0.00 0.15 0.05 84 1012.0
20260507183020 13 231 0.0 0.0 0.00 0.15 0.05 84 1012.1
20260507182021 13 231 0.0 0.0 0.00 0.15 0.05 86 1012.1
20260507181520 13 231 0.0 0.0 0.00 0.15 0.05 88 1011.9
20260507181020 12 231 0.0 0.0 0.00 0.15 0.05 86 1011.9
20260507180520 12 231 0.0 0.0 0.03 0.15 0.05 88 1012.1
20260507180020 12 231 0.0 0.0 0.03 0.15 0.05 87 1012.1
20260507175520 12 231 0.0 0.0 0.03 0.15 0.05 88 1012.0
20260507175019 12 231 0.0 0.0 0.03 0.15 0.05 88 1012.1
20260507174520 12 345 0.0 0.0 0.03 0.15 0.05 89 1012.1
20260507174020 12 8 0.0 0.0 0.03 0.15 0.05 88 1012.0
20260507173519 12 8 0.0 0.0 0.03 0.15 0.05 88 1012.1
20260507173020 12 8 0.0 0.0 0.03 0.15 0.05 88 1012.2
20260507171519 13 8 0.0 0.0 0.03 0.15 0.05 85 1012.0
20260507171020 13 12 0.0 1.6 0.03 0.15 0.05 81 1012.1
20260507170520 13 129 0.0 1.6 0.00 0.13 0.03 80 1012.4
20260507170020 13 95 0.0 1.6 0.00 0.15 0.03 81 1012.3
20260507165520 13 97 0.0 3.2 0.00 0.15 0.03 81 1012.2
20260507165020 13 332 0.0 1.6 0.00 0.15 0.03 81 1012.2
20260507164019 13 218 1.6 4.8 0.00 0.15 0.03 80 1012.1
20260507163520 13 45 0.0 1.6 0.00 0.18 0.03 80 1012.1
20260507163019 13 45 0.0 1.6 0.00 0.18 0.03 79 1012.2
20260507162520 13 12 0.0 0.0 0.00 0.18 0.03 81 1012.1
20260507162019 14 11 0.0 0.0 0.00 0.18 0.03 81 1012.0
20260507161520 14 9 0.0 1.6 0.00 0.18 0.03 80 1012.0
20260507161019 14 311 0.0 0.0 0.00 0.18 0.03 81 1012.1
20260507160521 14 311 0.0 4.8 0.00 0.18 0.03 81 1012.2
20260507160021 14 342 0.0 1.6 0.00 0.18 0.03 80 1012.2
20260507155519 14 342 0.0 1.6 0.00 0.18 0.03 81 1012.3
20260507154519 14 218 0.0 1.6 0.00 0.18 0.03 80 1012.4
20260507154021 14 341 0.0 1.6 0.00 0.18 0.03 81 1012.6
20260507153020 14 176 0.0 0.0 0.00 0.18 0.03 82 1012.5
20260507152520 14 165 0.0 0.0 0.00 0.18 0.03 81 1012.5
20260507152019 14 140 0.0 1.6 0.00 0.18 0.03 82 1012.5
20260507151520 14 106 0.0 1.6 0.00 0.18 0.03 82 1012.5
20260507151019 14 111 1.6 3.2 0.00 0.18 0.03 81 1012.4
20260507150520 14 171 0.0 0.0 0.00 0.18 0.03 82 1012.4
20260507150019 14 171 0.0 1.6 0.00 0.18 0.03 82 1012.3
20260507145520 14 4 0.0 1.6 0.00 0.18 0.03 82 1012.2
20260507145019 14 3 0.0 1.6 0.00 0.18 0.03 82 1012.2
20260507144520 14 3 0.0 1.6 0.00 0.18 0.03 82 1012.3
20260507143520 14 2 0.0 3.2 0.00 0.18 0.03 82 1012.2
20260507142520 15 356 0.0 0.0 0.00 0.18 0.03 82 1012.0
20260507142019 15 351 0.0 0.0 0.00 0.18 0.03 82 1012.1
20260507141520 15 352 0.0 1.6 0.00 0.18 0.03 83 1012.1
20260507140519 15 286 1.6 4.8 0.00 0.18 0.03 83 1012.2
20260507140019 15 235 0.0 1.6 0.00 0.18 0.03 84 1011.9
20260507135519 15 59 1.6 3.2 0.00 0.18 0.03 85 1011.7
20260507135019 15 41 0.0 0.0 0.00 0.20 0.03 86 1011.9
20260507134020 15 47 0.0 0.0 0.00 0.20 0.03 85 1012.6
20260507133519 15 17 0.0 0.0 0.00 0.23 0.03 85 1012.5
20260507133021 15 29 0.0 3.2 0.00 0.23 0.03 85 1012.4
20260507132519 15 76 0.0 1.6 0.00 0.23 0.03 85 1012.3
20260507132019 14 136 0.0 1.6 0.00 0.23 0.03 86 1012.4
20260507131519 15 147 0.0 0.0 0.00 0.23 0.03 85 1012.4
20260507131020 15 179 0.0 0.0 0.00 0.23 0.03 86 1012.6
20260507130519 15 150 0.0 0.0 0.00 0.23 0.03 86 1012.7
20260507130019 15 131 0.0 1.6 0.00 0.23 0.03 86 1012.4
20260507125519 15 143 0.0 0.0 0.00 0.25 0.03 85 1012.3
20260507125019 15 143 0.0 0.0 0.00 0.25 0.03 87 1012.2
20260507124519 15 142 0.0 0.0 0.00 0.25 0.03 87 1012.4
20260507124019 14 195 0.0 0.0 0.00 0.25 0.03 87 1012.4
20260507123519 14 195 0.0 0.0 0.00 0.25 0.03 88 1012.4
20260507122519 14 263 0.0 3.2 0.00 0.25 0.03 89 1012.5
20260507122019 14 27 0.0 0.0 0.00 0.25 0.03 89 1012.4
20260507121518 14 27 0.0 0.0 0.00 0.25 0.03 89 1012.4
20260507121019 14 27 0.0 0.0 0.00 0.25 0.03 90 1012.2
20260507120519 14 39 0.0 0.0 0.00 0.25 0.03 89 1012.2
20260507120019 14 317 0.0 0.0 0.00 0.25 0.03 91 1012.4
20260507115520 14 319 0.0 0.0 0.00 0.25 0.03 91 1012.3
20260507115020 14 319 0.0 0.0 0.00 0.25 0.03 90 1012.2
20260507114519 14 319 0.0 0.0 0.00 0.25 0.03 91 1012.2
20260507113519 14 263 0.0 0.0 0.00 0.25 0.03 92 1012.2
20260507113019 14 263 0.0 0.0 0.00 0.25 0.03 92 1012.0
20260507112518 14 263 0.0 0.0 0.00 0.25 0.03 92 1011.9
20260507112019 14 263 0.0 0.0 0.00 0.25 0.03 91 1011.8
20260507111518 14 263 0.0 0.0 0.00 0.25 0.03 91 1012.0
20260507111019 14 263 0.0 0.0 0.00 0.25 0.03 91 1011.8
20260507110519 14 263 0.0 0.0 0.00 0.25 0.03 92 1011.6
20260507110019 14 263 0.0 0.0 0.00 0.25 0.03 92 1011.7
20260507105518 14 263 0.0 0.0 0.00 0.25 0.03 92 1011.8
20260507105020 14 101 0.0 0.0 0.00 0.25 0.03 92 1011.6
20260507104518 14 101 0.0 0.0 0.00 0.25 0.03 92 1011.8
20260507104019 14 101 0.0 1.6 0.00 0.25 0.03 91 1011.6
20260507103520 14 241 0.0 0.0 0.00 0.25 0.03 92 1011.4
20260507103018 14 241 0.0 0.0 0.00 0.25 0.03 92 1011.4
20260507102519 14 241 0.0 0.0 0.00 0.25 0.03 92 1011.5
20260507102019 14 241 0.0 0.0 0.00 0.25 0.03 92 1011.3
20260507101518 14 241 0.0 0.0 0.00 0.25 0.03 91 1011.7
20260507101020 14 241 0.0 0.0 0.00 0.25 0.03 91 1011.5
20260507095518 14 241 0.0 0.0 0.00 0.25 0.03 92 1011.3
20260507095019 15 241 0.0 0.0 0.00 0.25 0.03 92 1011.4
20260507094518 15 241 0.0 0.0 0.00 0.25 0.03 93 1011.7
20260507094019 15 241 0.0 0.0 0.00 0.25 0.03 93 1011.6
20260507093519 15 229 0.0 0.0 0.00 0.25 0.03 93 1011.2
20260507093018 15 229 0.0 0.0 0.00 0.25 0.03 93 1011.4
20260507092519 15 229 0.0 0.0 0.00 0.25 0.03 94 1011.6
20260507092018 15 229 0.0 1.6 0.00 0.25 0.03 95 1011.7
20260507091020 15 229 0.0 0.0 0.00 0.25 0.03 95 1011.4
20260507090020 15 229 0.0 0.0 0.00 0.25 0.03 96 1010.8
20260507085518 15 229 0.0 1.6 0.00 0.25 0.03 96 1010.7
20260507085019 15 229 0.0 0.0 0.00 0.25 0.03 96 1011.2
20260507084518 15 229 0.0 0.0 0.00 0.25 0.03 96 1011.0
20260507083519 15 229 0.0 1.6 0.00 0.25 0.03 96 1011.3
20260507083018 15 229 0.0 1.6 0.00 0.25 0.03 96 1011.6
20260507082519 15 229 0.0 1.6 0.00 0.25 0.03 95 1011.4
20260507082018 15 229 1.6 1.6 0.00 0.25 0.03 96 1011.2
20260507081519 15 229 0.0 1.6 0.00 0.25 0.03 95 1011.3
20260507080518 16 216 0.0 0.0 0.00 0.25 0.03 97 1011.2
20260507080019 16 216 0.0 0.0 0.00 0.25 0.03 97 1011.5
20260507075518 16 184 0.0 0.0 0.00 0.25 0.03 96 1011.4
20260507075019 16 184 0.0 0.0 0.00 0.25 0.03 96 1011.4
20260507074518 16 184 0.0 0.0 0.00 0.25 0.03 96 1011.5
20260507073519 16 184 0.0 0.0 0.00 0.25 0.03 96 1011.5
20260507073018 16 184 0.0 0.0 0.00 0.25 0.03 96 1011.5
20260507072520 16 184 0.0 0.0 0.00 0.25 0.03 97 1011.8
20260507072018 16 184 0.0 0.0 0.00 0.25 0.03 96 1011.5
20260507071519 16 184 0.0 0.0 0.00 0.25 0.03 97 1011.5
20260507071018 16 184 0.0 0.0 0.00 0.25 0.03 97 1011.2
20260507070518 16 184 0.0 0.0 0.00 0.25 0.03 97 1011.3
20260507070019 16 184 0.0 0.0 0.00 0.25 0.03 96 1011.3
20260507065018 16 168 0.0 0.0 0.00 0.25 0.03 96 1011.0
20260507064518 16 168 0.0 0.0 0.00 0.25 0.03 96 1011.0
20260507064018 16 168 0.0 0.0 0.00 0.25 0.03 96 1011.1
20260507063519 16 168 0.0 0.0 0.03 0.25 0.03 96 1011.5
20260507063018 16 168 0.0 0.0 0.03 0.25 0.03 96 1011.5
20260507062519 16 165 0.0 0.0 0.03 0.25 0.03 96 1011.1
20260507062018 16 165 0.0 0.0 0.03 0.25 0.03 96 1011.2
20260507061518 16 165 0.0 0.0 0.03 0.25 0.03 95 1011.2
20260507061018 16 165 0.0 0.0 0.03 0.25 0.03 95 1011.0
20260507060518 16 165 0.0 0.0 0.03 0.25 0.03 95 1010.9
20260507055019 16 165 0.0 0.0 0.03 0.25 0.03 94 1011.4
20260507054519 16 165 0.0 0.0 0.03 0.25 0.03 94 1011.6
20260507054018 16 165 0.0 3.2 0.03 0.25 0.03 94 1011.6
20260507053518 16 60 1.6 1.6 0.00 0.23 0.00 94 1011.5
20260507052518 16 340 0.0 1.6 0.00 0.23 0.00 95 1011.7
20260507052018 16 340 1.6 1.6 0.00 0.23 0.00 95 1011.7
20260507051519 16 338 0.0 1.6 0.00 0.23 0.00 95 1011.7
20260507051018 16 90 1.6 3.2 0.00 0.23 0.00 95 1011.5
20260507050018 16 248 1.6 1.6 0.00 0.23 0.00 95 1011.7
20260507045518 16 258 0.0 1.6 0.00 0.23 0.00 95 1011.5
20260507045017 16 301 0.0 0.0 0.00 0.23 0.00 95 1011.3
20260507044518 16 264 0.0 0.0 0.00 0.23 0.00 95 1011.2
20260507044018 16 264 0.0 1.6 0.00 0.23 0.00 95 1011.2
20260507043018 16 265 1.6 1.6 0.00 0.23 0.00 95 1011.2
20260507042018 16 264 0.0 3.2 0.00 0.23 0.00 95 1011.3
20260507041519 16 338 0.0 0.0 0.00 0.23 0.00 95 1011.3
20260507041018 16 300 0.0 0.0 0.00 0.23 0.00 95 1011.3
20260507040017 17 79 0.0 0.0 0.00 0.23 0.00 94 1011.6
20260507035518 17 79 0.0 1.6 0.00 0.23 0.23 94 1011.7
20260507035018 17 75 0.0 1.6 0.00 0.23 0.23 94 1011.5
20260507034518 17 75 0.0 1.6 0.00 0.23 0.23 94 1011.7
20260507034018 17 75 1.6 1.6 0.00 0.23 0.23 94 1011.9
20260507033517 17 39 1.6 1.6 0.00 0.23 0.23 94 1011.9
20260507033018 17 30 0.0 1.6 0.05 0.23 0.23 93 1012.2
20260507032518 17 25 1.6 3.2 0.08 0.23 0.23 93 1012.4
20260507032018 17 65 1.6 3.2 0.08 0.23 0.23 93 1012.9
20260507031517 17 81 1.6 3.2 0.08 0.23 0.23 94 1013.0
20260507030518 17 86 1.6 1.6 0.10 0.23 0.23 92 1012.9
20260507030018 17 93 0.0 1.6 0.10 0.23 0.23 92 1012.9
20260507025518 17 93 0.0 0.0 0.10 0.23 0.23 91 1012.7
20260507025017 18 93 0.0 1.6 0.10 0.23 0.23 90 1012.3
20260507024517 18 118 0.0 3.2 0.10 0.23 0.23 89 1012.4
20260507024018 18 212 0.0 1.6 0.10 0.23 0.23 88 1012.3
20260507023518 18 250 1.6 3.2 0.10 0.23 0.23 86 1012.4
20260507023019 18 184 1.6 3.2 0.05 0.18 0.18 85 1012.5
20260507022517 19 254 1.6 8.0 0.03 0.15 0.15 83 1012.9
20260507022017 19 271 3.2 9.7 0.03 0.15 0.15 81 1012.7
20260507021517 20 227 3.2 8.0 0.03 0.15 0.15 80 1012.4
20260507021017 20 270 3.2 4.8 0.00 0.13 0.13 79 1012.1
20260507020518 20 270 1.6 14.5 0.00 0.13 0.13 78 1011.9
20260507020018 20 278 3.2 8.0 0.00 0.13 0.13 77 1012.1
20260507015518 20 242 3.2 8.0 0.00 0.13 0.13 78 1012.1
20260507014017 18 264 1.6 3.2 0.00 0.13 0.13 84 1011.8
20260507013517 18 257 1.6 4.8 0.00 0.13 0.13 84 1011.7
20260507013018 18 149 3.2 11.3 0.00 0.13 0.13 84 1011.4
20260507012517 18 347 0.0 1.6 0.00 0.13 0.13 85 1011.4
20260507012019 18 110 0.0 0.0 0.00 0.13 0.13 85 1011.4
20260507010517 18 118 1.6 3.2 0.00 0.13 0.13 85 1011.8
20260507010017 18 150 0.0 3.2 0.00 0.13 0.13 84 1011.8
20260507005518 18 26 0.0 3.2 0.00 0.13 0.13 84 1011.9
20260507005019 18 134 0.0 1.6 0.00 0.13 0.13 84 1011.7
20260507004517 18 342 0.0 1.6 0.00 0.13 0.13 83 1011.7
20260507004017 18 323 0.0 3.2 0.00 0.13 0.13 83 1011.6
20260507003518 18 268 1.6 4.8 0.00 0.13 0.13 83 1011.4
20260507003018 18 131 0.0 0.0 0.00 0.13 0.13 83 1011.4
20260507002517 18 54 0.0 0.0 0.00 0.13 0.13 84 1011.3
20260507002017 18 30 0.0 0.0 0.00 0.13 0.13 83 1011.3
20260507001518 18 6 1.6 1.6 0.00 0.13 0.13 83 1011.4
20260507001019 18 120 0.0 1.6 0.00 0.13 0.13 83 1011.1
20260507000517 19 119 0.0 3.2 0.00 0.13 0.13 83 1011.0
20260507000017 19 151 1.6 4.8 0.00 0.13 0.13 82 1011.0
20260506235518 19 323 0.0 1.6 0.00 0.13 0.13 81 1011.0
20260506234517 20 304 0.0 1.6 0.00 0.13 0.13 80 1011.1
20260506234018 20 90 0.0 0.0 0.00 0.13 0.13 80 1011.3
20260506233517 20 89 0.0 1.6 0.00 0.13 0.13 80 1011.4
20260506233017 20 85 0.0 1.6 0.00 0.13 0.13 80 1011.4
20260506232517 20 126 1.6 3.2 0.00 0.13 0.13 79 1011.5
20260506232017 20 41 1.6 4.8 0.00 0.13 0.13 79 1011.3
20260506231517 20 103 0.0 3.2 0.00 0.13 0.13 78 1011.2
20260506231017 20 350 1.6 3.2 0.00 0.13 0.13 79 1010.8
20260506230517 20 124 1.6 3.2 0.00 0.13 0.13 80 1010.9
20260506230017 20 105 1.6 3.2 0.00 0.13 0.13 81 1010.9